Year,Month,Day,Hour,Minute,Value (Times are PST for insolation in W/m^2)
2019,04,27,00,00,0.00
2019,04,27,00,01,0.00
2019,04,27,00,02,0.00
2019,04,27,00,03,0.00
2019,04,27,00,04,0.00
2019,04,27,00,05,0.00
2019,04,27,00,06,0.00
2019,04,27,00,07,0.00
2019,04,27,00,08,0.00
2019,04,27,00,09,0.00
2019,04,27,00,10,0.00
2019,04,27,00,11,0.00
2019,04,27,00,12,0.00
2019,04,27,00,13,0.00
2019,04,27,00,14,0.00
2019,04,27,00,15,0.00
2019,04,27,00,16,0.00
2019,04,27,00,17,0.00
2019,04,27,00,18,0.00
2019,04,27,00,19,0.00
2019,04,27,00,20,0.00
2019,04,27,00,21,0.00
2019,04,27,00,22,0.00
2019,04,27,00,23,0.00
2019,04,27,00,24,0.00
2019,04,27,00,25,0.00
2019,04,27,00,26,0.00
2019,04,27,00,27,0.00
2019,04,27,00,28,0.00
2019,04,27,00,29,0.00
2019,04,27,00,30,0.00
2019,04,27,00,31,0.00
2019,04,27,00,32,0.00
2019,04,27,00,33,0.00
2019,04,27,00,34,0.00
2019,04,27,00,35,0.00
2019,04,27,00,36,0.00
2019,04,27,00,37,0.00
2019,04,27,00,38,0.00
2019,04,27,00,39,0.00
2019,04,27,00,40,0.00
2019,04,27,00,41,0.00
2019,04,27,00,42,0.00
2019,04,27,00,43,0.00
2019,04,27,00,44,0.00
2019,04,27,00,45,0.00
2019,04,27,00,46,0.00
2019,04,27,00,47,0.00
2019,04,27,00,48,0.00
2019,04,27,00,49,0.00
2019,04,27,00,50,0.00
2019,04,27,00,51,0.00
2019,04,27,00,52,0.00
2019,04,27,00,53,0.00
2019,04,27,00,54,0.00
2019,04,27,00,55,0.00
2019,04,27,00,56,0.00
2019,04,27,00,57,0.00
2019,04,27,00,58,0.00
2019,04,27,00,59,0.00
2019,04,27,01,00,0.00
2019,04,27,01,01,0.00
2019,04,27,01,02,0.00
2019,04,27,01,03,0.00
2019,04,27,01,04,0.00
2019,04,27,01,05,0.00
2019,04,27,01,06,0.00
2019,04,27,01,07,0.00
2019,04,27,01,08,0.00
2019,04,27,01,09,0.00
2019,04,27,01,10,0.00
2019,04,27,01,11,0.00
2019,04,27,01,12,0.00
2019,04,27,01,13,0.00
2019,04,27,01,14,0.00
2019,04,27,01,15,0.00
2019,04,27,01,16,0.00
2019,04,27,01,17,0.00
2019,04,27,01,18,0.00
2019,04,27,01,19,0.00
2019,04,27,01,20,0.00
2019,04,27,01,21,0.00
2019,04,27,01,22,0.00
2019,04,27,01,23,0.00
2019,04,27,01,24,0.00
2019,04,27,01,25,0.00
2019,04,27,01,26,0.00
2019,04,27,01,27,0.00
2019,04,27,01,28,0.00
2019,04,27,01,29,0.00
2019,04,27,01,30,0.00
2019,04,27,01,31,0.00
2019,04,27,01,32,0.00
2019,04,27,01,33,0.00
2019,04,27,01,34,0.00
2019,04,27,01,35,0.00
2019,04,27,01,36,0.00
2019,04,27,01,37,0.00
2019,04,27,01,38,0.00
2019,04,27,01,39,0.00
2019,04,27,01,40,0.00
2019,04,27,01,41,0.00
2019,04,27,01,42,0.00
2019,04,27,01,43,0.00
2019,04,27,01,44,0.00
2019,04,27,01,45,0.00
2019,04,27,01,46,0.00
2019,04,27,01,47,0.00
2019,04,27,01,48,0.00
2019,04,27,01,49,0.00
2019,04,27,01,50,0.00
2019,04,27,01,51,0.00
2019,04,27,01,52,0.00
2019,04,27,01,53,0.00
2019,04,27,01,54,0.00
2019,04,27,01,55,0.00
2019,04,27,01,56,0.00
2019,04,27,01,57,0.00
2019,04,27,01,58,0.00
2019,04,27,01,59,0.00
2019,04,27,02,00,0.00
2019,04,27,02,01,0.00
2019,04,27,02,02,0.00
2019,04,27,02,03,0.00
2019,04,27,02,04,0.00
2019,04,27,02,05,0.00
2019,04,27,02,06,0.00
2019,04,27,02,07,0.00
2019,04,27,02,08,0.00
2019,04,27,02,09,0.00
2019,04,27,02,10,0.00
2019,04,27,02,11,0.00
2019,04,27,02,12,0.00
2019,04,27,02,13,0.00
2019,04,27,02,14,0.00
2019,04,27,02,15,0.00
2019,04,27,02,16,0.00
2019,04,27,02,17,0.00
2019,04,27,02,18,0.00
2019,04,27,02,19,0.00
2019,04,27,02,20,0.00
2019,04,27,02,21,0.00
2019,04,27,02,22,0.00
2019,04,27,02,23,0.00
2019,04,27,02,24,0.00
2019,04,27,02,25,0.00
2019,04,27,02,26,0.00
2019,04,27,02,27,0.00
2019,04,27,02,28,0.00
2019,04,27,02,29,0.00
2019,04,27,02,30,0.00
2019,04,27,02,31,0.00
2019,04,27,02,32,0.00
2019,04,27,02,33,0.00
2019,04,27,02,34,0.00
2019,04,27,02,35,0.00
2019,04,27,02,36,0.00
2019,04,27,02,37,0.00
2019,04,27,02,38,0.00
2019,04,27,02,39,0.00
2019,04,27,02,40,0.00
2019,04,27,02,41,0.00
2019,04,27,02,42,0.00
2019,04,27,02,43,0.00
2019,04,27,02,44,0.00
2019,04,27,02,45,0.00
2019,04,27,02,46,0.00
2019,04,27,02,47,0.00
2019,04,27,02,48,0.00
2019,04,27,02,49,0.00
2019,04,27,02,50,0.00
2019,04,27,02,51,0.00
2019,04,27,02,52,0.00
2019,04,27,02,53,0.00
2019,04,27,02,54,0.00
2019,04,27,02,55,0.00
2019,04,27,02,56,0.00
2019,04,27,02,57,0.00
2019,04,27,02,58,0.00
2019,04,27,02,59,0.00
2019,04,27,03,00,0.00
2019,04,27,03,01,0.00
2019,04,27,03,02,0.00
2019,04,27,03,03,0.00
2019,04,27,03,04,0.00
2019,04,27,03,05,0.00
2019,04,27,03,06,0.00
2019,04,27,03,07,0.00
2019,04,27,03,08,0.00
2019,04,27,03,09,0.00
2019,04,27,03,10,0.00
2019,04,27,03,11,0.00
2019,04,27,03,12,0.00
2019,04,27,03,13,0.00
2019,04,27,03,14,0.00
2019,04,27,03,15,0.00
2019,04,27,03,16,0.00
2019,04,27,03,17,0.00
2019,04,27,03,18,0.00
2019,04,27,03,19,0.00
2019,04,27,03,20,0.00
2019,04,27,03,21,0.00
2019,04,27,03,22,0.00
2019,04,27,03,23,0.00
2019,04,27,03,24,0.00
2019,04,27,03,25,0.00
2019,04,27,03,26,0.00
2019,04,27,03,27,0.00
2019,04,27,03,28,0.00
2019,04,27,03,29,0.00
2019,04,27,03,30,0.00
2019,04,27,03,31,0.00
2019,04,27,03,32,0.00
2019,04,27,03,33,0.00
2019,04,27,03,34,0.00
2019,04,27,03,35,0.00
2019,04,27,03,36,0.00
2019,04,27,03,37,0.00
2019,04,27,03,38,0.00
2019,04,27,03,39,0.00
2019,04,27,03,40,0.00
2019,04,27,03,41,0.00
2019,04,27,03,42,0.00
2019,04,27,03,43,0.00
2019,04,27,03,44,0.00
2019,04,27,03,45,0.00
2019,04,27,03,46,0.00
2019,04,27,03,47,0.00
2019,04,27,03,48,0.00
2019,04,27,03,49,0.00
2019,04,27,03,50,0.00
2019,04,27,03,51,0.00
2019,04,27,03,52,0.00
2019,04,27,03,53,0.00
2019,04,27,03,54,0.00
2019,04,27,03,55,0.00
2019,04,27,03,56,0.00
2019,04,27,03,57,0.00
2019,04,27,03,58,0.00
2019,04,27,03,59,0.00
2019,04,27,04,00,0.00
2019,04,27,04,01,0.00
2019,04,27,04,02,0.00
2019,04,27,04,03,0.00
2019,04,27,04,04,0.00
2019,04,27,04,05,0.00
2019,04,27,04,06,0.00
2019,04,27,04,07,0.00
2019,04,27,04,08,0.00
2019,04,27,04,09,0.00
2019,04,27,04,10,0.00
2019,04,27,04,11,0.00
2019,04,27,04,12,0.00
2019,04,27,04,13,0.00
2019,04,27,04,14,0.00
2019,04,27,04,15,0.00
2019,04,27,04,16,0.00
2019,04,27,04,17,0.00
2019,04,27,04,18,0.00
2019,04,27,04,19,0.00
2019,04,27,04,20,0.00
2019,04,27,04,21,0.00
2019,04,27,04,22,0.00
2019,04,27,04,23,0.00
2019,04,27,04,24,0.00
2019,04,27,04,25,0.00
2019,04,27,04,26,0.00
2019,04,27,04,27,0.00
2019,04,27,04,28,0.00
2019,04,27,04,29,0.00
2019,04,27,04,30,0.00
2019,04,27,04,31,0.00
2019,04,27,04,32,0.00
2019,04,27,04,33,0.00
2019,04,27,04,34,0.00
2019,04,27,04,35,0.00
2019,04,27,04,36,0.00
2019,04,27,04,37,0.00
2019,04,27,04,38,0.00
2019,04,27,04,39,0.00
2019,04,27,04,40,0.00
2019,04,27,04,41,0.00
2019,04,27,04,42,0.00
2019,04,27,04,43,0.00
2019,04,27,04,44,0.00
2019,04,27,04,45,0.00
2019,04,27,04,46,0.00
2019,04,27,04,47,0.00
2019,04,27,04,48,0.00
2019,04,27,04,49,0.00
2019,04,27,04,50,0.00
2019,04,27,04,51,0.00
2019,04,27,04,52,0.00
2019,04,27,04,53,0.00
2019,04,27,04,54,0.00
2019,04,27,04,55,0.00
2019,04,27,04,56,0.00
2019,04,27,04,57,0.00
2019,04,27,04,58,0.00
2019,04,27,04,59,0.00
2019,04,27,05,00,0.00
2019,04,27,05,01,0.00
2019,04,27,05,02,0.00
2019,04,27,05,03,0.00
2019,04,27,05,04,0.00
2019,04,27,05,05,0.00
2019,04,27,05,06,0.00
2019,04,27,05,07,0.00
2019,04,27,05,08,0.00
2019,04,27,05,09,0.00
2019,04,27,05,10,0.00
2019,04,27,05,11,0.00
2019,04,27,05,12,0.00
2019,04,27,05,13,0.00
2019,04,27,05,14,0.00
2019,04,27,05,15,0.00
2019,04,27,05,16,0.00
2019,04,27,05,17,0.00
2019,04,27,05,18,0.00
2019,04,27,05,19,0.00
2019,04,27,05,20,0.00
2019,04,27,05,21,0.00
2019,04,27,05,22,0.00
2019,04,27,05,23,0.00
2019,04,27,05,24,0.00
2019,04,27,05,25,0.00
2019,04,27,05,26,0.00
2019,04,27,05,27,0.00
2019,04,27,05,28,0.00
2019,04,27,05,29,0.00
2019,04,27,05,30,0.00
2019,04,27,05,31,0.00
2019,04,27,05,32,0.00
2019,04,27,05,33,0.00
2019,04,27,05,34,0.00
2019,04,27,05,35,0.00
2019,04,27,05,36,0.00
2019,04,27,05,37,0.00
2019,04,27,05,38,0.00
2019,04,27,05,39,0.00
2019,04,27,05,40,0.00
2019,04,27,05,41,0.00
2019,04,27,05,42,0.00
2019,04,27,05,43,0.00
2019,04,27,05,44,0.00
2019,04,27,05,45,0.00
2019,04,27,05,46,0.00
2019,04,27,05,47,0.00
2019,04,27,05,48,0.00
2019,04,27,05,49,0.00
2019,04,27,05,50,0.00
2019,04,27,05,51,0.00
2019,04,27,05,52,0.00
2019,04,27,05,53,0.00
2019,04,27,05,54,0.00
2019,04,27,05,55,0.00
2019,04,27,05,56,0.00
2019,04,27,05,57,0.00
2019,04,27,05,58,0.00
2019,04,27,05,59,3.30
2019,04,27,06,00,5.00
2019,04,27,06,01,5.00
2019,04,27,06,02,5.00
2019,04,27,06,03,6.90
2019,04,27,06,04,7.00
2019,04,27,06,05,7.00
2019,04,27,06,06,7.70
2019,04,27,06,07,9.00
2019,04,27,06,08,9.00
2019,04,27,06,09,9.00
2019,04,27,06,10,10.40
2019,04,27,06,11,11.00
2019,04,27,06,12,11.00
2019,04,27,06,13,11.90
2019,04,27,06,14,12.20
2019,04,27,06,15,14.00
2019,04,27,06,16,14.00
2019,04,27,06,17,14.70
2019,04,27,06,18,16.00
2019,04,27,06,19,16.00
2019,04,27,06,20,16.00
2019,04,27,06,21,17.30
2019,04,27,06,22,18.00
2019,04,27,06,23,18.00
2019,04,27,06,24,18.90
2019,04,27,06,25,19.00
2019,04,27,06,26,19.30
2019,04,27,06,27,21.00
2019,04,27,06,28,21.60
2019,04,27,06,29,23.80
2019,04,27,06,30,24.00
2019,04,27,06,31,23.00
2019,04,27,06,32,24.30
2019,04,27,06,33,25.70
2019,04,27,06,34,33.40
2019,04,27,06,35,39.60
2019,04,27,06,36,40.00
2019,04,27,06,37,40.00
2019,04,27,06,38,40.00
2019,04,27,06,39,40.00
2019,04,27,06,40,40.00
2019,04,27,06,41,40.00
2019,04,27,06,42,48.30
2019,04,27,06,43,58.00
2019,04,27,06,44,62.20
2019,04,27,06,45,64.60
2019,04,27,06,46,68.60
2019,04,27,06,47,70.40
2019,04,27,06,48,74.40
2019,04,27,06,49,76.80
2019,04,27,06,50,80.30
2019,04,27,06,51,83.40
2019,04,27,06,52,86.00
2019,04,27,06,53,89.20
2019,04,27,06,54,92.00
2019,04,27,06,55,94.50
2019,04,27,06,56,97.50
2019,04,27,06,57,101.60
2019,04,27,06,58,104.30
2019,04,27,06,59,107.40
2019,04,27,07,00,110.10
2019,04,27,07,01,114.10
2019,04,27,07,02,116.80
2019,04,27,07,03,119.50
2019,04,27,07,04,123.40
2019,04,27,07,05,126.30
2019,04,27,07,06,129.20
2019,04,27,07,07,133.40
2019,04,27,07,08,136.70
2019,04,27,07,09,141.10
2019,04,27,07,10,142.70
2019,04,27,07,11,146.70
2019,04,27,07,12,150.30
2019,04,27,07,13,153.80
2019,04,27,07,14,156.50
2019,04,27,07,15,160.40
2019,04,27,07,16,164.00
2019,04,27,07,17,167.90
2019,04,27,07,18,171.50
2019,04,27,07,19,175.60
2019,04,27,07,20,179.50
2019,04,27,07,21,185.50
2019,04,27,07,22,188.50
2019,04,27,07,23,191.60
2019,04,27,07,24,196.60
2019,04,27,07,25,199.50
2019,04,27,07,26,202.40
2019,04,27,07,27,206.00
2019,04,27,07,28,210.20
2019,04,27,07,29,212.60
2019,04,27,07,30,215.70
2019,04,27,07,31,220.30
2019,04,27,07,32,223.40
2019,04,27,07,33,226.00
2019,04,27,07,34,229.30
2019,04,27,07,35,231.60
2019,04,27,07,36,235.00
2019,04,27,07,37,237.80
2019,04,27,07,38,240.40
2019,04,27,07,39,243.40
2019,04,27,07,40,245.70
2019,04,27,07,41,246.00
2019,04,27,07,42,253.40
2019,04,27,07,43,257.20
2019,04,27,07,44,258.50
2019,04,27,07,45,261.30
2019,04,27,07,46,264.40
2019,04,27,07,47,267.00
2019,04,27,07,48,270.90
2019,04,27,07,49,273.30
2019,04,27,07,50,276.90
2019,04,27,07,51,280.50
2019,04,27,07,52,282.80
2019,04,27,07,53,287.30
2019,04,27,07,54,290.30
2019,04,27,07,55,292.70
2019,04,27,07,56,296.30
2019,04,27,07,57,300.20
2019,04,27,07,58,303.00
2019,04,27,07,59,305.20
2019,04,27,08,00,308.00
2019,04,27,08,01,312.00
2019,04,27,08,02,314.60
2019,04,27,08,03,319.50
2019,04,27,08,04,322.30
2019,04,27,08,05,325.30
2019,04,27,08,06,327.70
2019,04,27,08,07,330.60
2019,04,27,08,08,333.60
2019,04,27,08,09,337.50
2019,04,27,08,10,340.20
2019,04,27,08,11,343.70
2019,04,27,08,12,345.70
2019,04,27,08,13,349.30
2019,04,27,08,14,352.70
2019,04,27,08,15,355.40
2019,04,27,08,16,359.20
2019,04,27,08,17,361.00
2019,04,27,08,18,364.60
2019,04,27,08,19,368.00
2019,04,27,08,20,372.00
2019,04,27,08,21,374.80
2019,04,27,08,22,377.30
2019,04,27,08,23,379.50
2019,04,27,08,24,382.50
2019,04,27,08,25,384.80
2019,04,27,08,26,388.40
2019,04,27,08,27,392.30
2019,04,27,08,28,394.70
2019,04,27,08,29,398.30
2019,04,27,08,30,401.80
2019,04,27,08,31,404.50
2019,04,27,08,32,407.20
2019,04,27,08,33,410.00
2019,04,27,08,34,412.50
2019,04,27,08,35,416.30
2019,04,27,08,36,419.70
2019,04,27,08,37,422.30
2019,04,27,08,38,425.30
2019,04,27,08,39,427.90
2019,04,27,08,40,431.30
2019,04,27,08,41,433.60
2019,04,27,08,42,437.50
2019,04,27,08,43,441.40
2019,04,27,08,44,445.00
2019,04,27,08,45,447.50
2019,04,27,08,46,449.60
2019,04,27,08,47,451.80
2019,04,27,08,48,455.40
2019,04,27,08,49,459.40
2019,04,27,08,50,461.20
2019,04,27,08,51,463.30
2019,04,27,08,52,467.20
2019,04,27,08,53,471.00
2019,04,27,08,54,474.20
2019,04,27,08,55,475.70
2019,04,27,08,56,478.90
2019,04,27,08,57,482.50
2019,04,27,08,58,484.80
2019,04,27,08,59,487.20
2019,04,27,09,00,489.40
2019,04,27,09,01,492.50
2019,04,27,09,02,495.60
2019,04,27,09,03,499.80
2019,04,27,09,04,502.00
2019,04,27,09,05,504.80
2019,04,27,09,06,510.10
2019,04,27,09,07,512.00
2019,04,27,09,08,512.80
2019,04,27,09,09,514.80
2019,04,27,09,10,519.10
2019,04,27,09,11,521.10
2019,04,27,09,12,526.20
2019,04,27,09,13,528.30
2019,04,27,09,14,532.20
2019,04,27,09,15,535.00
2019,04,27,09,16,536.00
2019,04,27,09,17,538.70
2019,04,27,09,18,540.00
2019,04,27,09,19,540.80
2019,04,27,09,20,542.80
2019,04,27,09,21,547.00
2019,04,27,09,22,547.20
2019,04,27,09,23,549.10
2019,04,27,09,24,553.70
2019,04,27,09,25,557.00
2019,04,27,09,26,562.50
2019,04,27,09,27,565.60
2019,04,27,09,28,563.30
2019,04,27,09,29,565.20
2019,04,27,09,30,570.10
2019,04,27,09,31,574.60
2019,04,27,09,32,580.50
2019,04,27,09,33,585.40
2019,04,27,09,34,587.00
2019,04,27,09,35,589.20
2019,04,27,09,36,596.00
2019,04,27,09,37,601.00
2019,04,27,09,38,600.60
2019,04,27,09,39,599.00
2019,04,27,09,40,598.30
2019,04,27,09,41,596.40
2019,04,27,09,42,598.70
2019,04,27,09,43,605.10
2019,04,27,09,44,607.10
2019,04,27,09,45,612.00
2019,04,27,09,46,613.00
2019,04,27,09,47,615.00
2019,04,27,09,48,617.00
2019,04,27,09,49,621.90
2019,04,27,09,50,629.80
2019,04,27,09,51,636.80
2019,04,27,09,52,642.00
2019,04,27,09,53,643.00
2019,04,27,09,54,661.30
2019,04,27,09,55,660.00
2019,04,27,09,56,645.80
2019,04,27,09,57,654.90
2019,04,27,09,58,657.00
2019,04,27,09,59,657.00
2019,04,27,10,00,657.00
2019,04,27,10,01,657.00
2019,04,27,10,02,657.00
2019,04,27,10,03,657.00
2019,04,27,10,04,654.30
2019,04,27,10,05,661.50
2019,04,27,10,06,666.80
2019,04,27,10,07,670.20
2019,04,27,10,08,671.00
2019,04,27,10,09,671.80
2019,04,27,10,10,636.30
2019,04,27,10,11,603.00
2019,04,27,10,12,654.30
2019,04,27,10,13,681.50
2019,04,27,10,14,686.10
2019,04,27,10,15,686.10
2019,04,27,10,16,693.30
2019,04,27,10,17,696.00
2019,04,27,10,18,696.50
2019,04,27,10,19,697.40
2019,04,27,10,20,696.80
2019,04,27,10,21,698.00
2019,04,27,10,22,699.80
2019,04,27,10,23,703.70
2019,04,27,10,24,710.10
2019,04,27,10,25,713.60
2019,04,27,10,26,718.50
2019,04,27,10,27,722.00
2019,04,27,10,28,722.40
2019,04,27,10,29,725.70
2019,04,27,10,30,731.00
2019,04,27,10,31,734.70
2019,04,27,10,32,744.50
2019,04,27,10,33,752.00
2019,04,27,10,34,755.30
2019,04,27,10,35,757.50
2019,04,27,10,36,749.00
2019,04,27,10,37,747.00
2019,04,27,10,38,747.50
2019,04,27,10,39,752.70
2019,04,27,10,40,756.70
2019,04,27,10,41,760.90
2019,04,27,10,42,765.40
2019,04,27,10,43,766.00
2019,04,27,10,44,767.20
2019,04,27,10,45,768.00
2019,04,27,10,46,769.50
2019,04,27,10,47,771.60
2019,04,27,10,48,776.50
2019,04,27,10,49,779.00
2019,04,27,10,50,778.60
2019,04,27,10,51,777.70
2019,04,27,10,52,783.50
2019,04,27,10,53,800.40
2019,04,27,10,54,822.50
2019,04,27,10,55,842.80
2019,04,27,10,56,860.30
2019,04,27,10,57,880.30
2019,04,27,10,58,886.00
2019,04,27,10,59,886.00
2019,04,27,11,00,255.00
2019,04,27,11,01,255.00
2019,04,27,11,02,255.00
2019,04,27,11,03,255.00
2019,04,27,11,04,506.60
2019,04,27,11,05,863.00
2019,04,27,11,06,850.70
2019,04,27,11,07,845.00
2019,04,27,11,08,842.50
2019,04,27,11,09,843.60
2019,04,27,11,10,846.70
2019,04,27,11,11,853.00
2019,04,27,11,12,853.50
2019,04,27,11,13,856.50
2019,04,27,11,14,859.00
2019,04,27,11,15,865.50
2019,04,27,11,16,876.50
2019,04,27,11,17,891.00
2019,04,27,11,18,913.70
2019,04,27,11,19,937.00
2019,04,27,11,20,953.50
2019,04,27,11,21,962.40
2019,04,27,11,22,960.40
2019,04,27,11,23,890.20
2019,04,27,11,24,952.50
2019,04,27,11,25,919.00
2019,04,27,11,26,919.00
2019,04,27,11,27,956.00
2019,04,27,11,28,997.10
2019,04,27,11,29,1000.00
2019,04,27,11,30,882.70
2019,04,27,11,31,846.00
2019,04,27,11,32,846.00
2019,04,27,11,33,861.30
2019,04,27,11,34,1016.00
2019,04,27,11,35,1034.70
2019,04,27,11,36,1056.00
2019,04,27,11,37,1056.00
2019,04,27,11,38,660.00
2019,04,27,11,39,268.10
2019,04,27,11,40,257.40
2019,04,27,11,41,245.70
2019,04,27,11,42,275.90
2019,04,27,11,43,283.00
2019,04,27,11,44,346.10
2019,04,27,11,45,974.30
2019,04,27,11,46,967.20
2019,04,27,11,47,990.40
2019,04,27,11,48,1010.50
2019,04,27,11,49,1041.00
2019,04,27,11,50,1048.40
2019,04,27,11,51,1060.30
2019,04,27,11,52,1078.30
2019,04,27,11,53,1081.00
2019,04,27,11,54,1081.00
2019,04,27,11,55,256.00
2019,04,27,11,56,252.70
2019,04,27,11,57,271.80
2019,04,27,11,58,243.00
2019,04,27,11,59,265.40
2019,04,27,12,00,278.50
2019,04,27,12,01,279.80
2019,04,27,12,02,278.30
2019,04,27,12,03,284.50
2019,04,27,12,04,287.00
2019,04,27,12,05,287.00
2019,04,27,12,06,1074.30
2019,04,27,12,07,1092.40
2019,04,27,12,08,1059.10
2019,04,27,12,09,1018.00
2019,04,27,12,10,1018.00
2019,04,27,12,11,1075.00
2019,04,27,12,12,1132.00
2019,04,27,12,13,1132.00
2019,04,27,12,14,505.00
2019,04,27,12,15,268.90
2019,04,27,12,16,245.50
2019,04,27,12,17,241.90
2019,04,27,12,18,253.40
2019,04,27,12,19,267.30
2019,04,27,12,20,299.00
2019,04,27,12,21,363.40
2019,04,27,12,22,390.00
2019,04,27,12,23,315.50
2019,04,27,12,24,264.00
2019,04,27,12,25,459.00
2019,04,27,12,26,520.00
2019,04,27,12,27,520.00
2019,04,27,12,28,201.60
2019,04,27,12,29,155.10
2019,04,27,12,30,139.60
2019,04,27,12,31,129.10
2019,04,27,12,32,120.10
2019,04,27,12,33,115.00
2019,04,27,12,34,114.00
2019,04,27,12,35,114.00
2019,04,27,12,36,114.00
2019,04,27,12,37,111.40
2019,04,27,12,38,105.50
2019,04,27,12,39,97.50
2019,04,27,12,40,92.50
2019,04,27,12,41,89.50
2019,04,27,12,42,86.70
2019,04,27,12,43,82.80
2019,04,27,12,44,79.10
2019,04,27,12,45,74.00
2019,04,27,12,46,70.00
2019,04,27,12,47,66.00
2019,04,27,12,48,62.50
2019,04,27,12,49,58.40
2019,04,27,12,50,53.90
2019,04,27,12,51,53.00
2019,04,27,12,52,53.00
2019,04,27,12,53,53.00
2019,04,27,12,54,53.40
2019,04,27,12,55,56.00
2019,04,27,12,56,59.20
2019,04,27,12,57,62.00
2019,04,27,12,58,64.60
2019,04,27,12,59,68.20
2019,04,27,13,00,73.50
2019,04,27,13,01,81.80
2019,04,27,13,02,91.50
2019,04,27,13,03,100.80
2019,04,27,13,04,112.30
2019,04,27,13,05,124.80
2019,04,27,13,06,135.50
2019,04,27,13,07,141.90
2019,04,27,13,08,144.00
2019,04,27,13,09,147.80
2019,04,27,13,10,154.70
2019,04,27,13,11,164.10
2019,04,27,13,12,179.30
2019,04,27,13,13,195.60
2019,04,27,13,14,219.00
2019,04,27,13,15,251.90
2019,04,27,13,16,301.40
2019,04,27,13,17,338.00
2019,04,27,13,18,367.70
2019,04,27,13,19,332.70
2019,04,27,13,20,291.20
2019,04,27,13,21,246.50
2019,04,27,13,22,197.20
2019,04,27,13,23,169.30
2019,04,27,13,24,150.00
2019,04,27,13,25,134.10
2019,04,27,13,26,121.50
2019,04,27,13,27,112.00
2019,04,27,13,28,107.00
2019,04,27,13,29,105.00
2019,04,27,13,30,107.70
2019,04,27,13,31,112.00
2019,04,27,13,32,118.70
2019,04,27,13,33,129.10
2019,04,27,13,34,145.50
2019,04,27,13,35,163.30
2019,04,27,13,36,184.90
2019,04,27,13,37,234.00
2019,04,27,13,38,312.90
2019,04,27,13,39,343.00
2019,04,27,13,40,343.00
2019,04,27,13,41,635.50
2019,04,27,13,42,791.80
2019,04,27,13,43,837.30
2019,04,27,13,44,876.00
2019,04,27,13,45,886.80
2019,04,27,13,46,895.90
2019,04,27,13,47,901.90
2019,04,27,13,48,910.70
2019,04,27,13,49,925.00
2019,04,27,13,50,943.00
2019,04,27,13,51,923.80
2019,04,27,13,52,905.00
2019,04,27,13,53,905.00
2019,04,27,13,54,333.10
2019,04,27,13,55,212.40
2019,04,27,13,56,199.70
2019,04,27,13,57,217.40
2019,04,27,13,58,264.00
2019,04,27,13,59,264.00
2019,04,27,14,00,264.00
2019,04,27,14,01,264.00
2019,04,27,14,02,264.00
2019,04,27,14,03,264.00
2019,04,27,14,04,264.00
2019,04,27,14,05,264.00
2019,04,27,14,06,264.00
2019,04,27,14,07,264.00
2019,04,27,14,08,368.20
2019,04,27,14,09,837.00
2019,04,27,14,10,837.00
2019,04,27,14,11,837.00
2019,04,27,14,12,837.00
2019,04,27,14,13,506.70
2019,04,27,14,14,265.70
2019,04,27,14,15,265.30
2019,04,27,14,16,271.10
2019,04,27,14,17,277.50
2019,04,27,14,18,289.40
2019,04,27,14,19,281.00
2019,04,27,14,20,268.70
2019,04,27,14,21,259.30
2019,04,27,14,22,258.80
2019,04,27,14,23,262.00
2019,04,27,14,24,264.00
2019,04,27,14,25,255.10
2019,04,27,14,26,244.90
2019,04,27,14,27,228.30
2019,04,27,14,28,215.00
2019,04,27,14,29,202.90
2019,04,27,14,30,189.60
2019,04,27,14,31,176.30
2019,04,27,14,32,166.00
2019,04,27,14,33,158.00
2019,04,27,14,34,154.00
2019,04,27,14,35,154.20
2019,04,27,14,36,155.70
2019,04,27,14,37,159.00
2019,04,27,14,38,164.10
2019,04,27,14,39,170.50
2019,04,27,14,40,182.60
2019,04,27,14,41,203.70
2019,04,27,14,42,231.70
2019,04,27,14,43,263.80
2019,04,27,14,44,287.00
2019,04,27,14,45,287.00
2019,04,27,14,46,298.20
2019,04,27,14,47,297.80
2019,04,27,14,48,320.70
2019,04,27,14,49,298.70
2019,04,27,14,50,298.40
2019,04,27,14,51,310.90
2019,04,27,14,52,330.00
2019,04,27,14,53,330.00
2019,04,27,14,54,326.00
2019,04,27,14,55,307.40
2019,04,27,14,56,284.00
2019,04,27,14,57,267.70
2019,04,27,14,58,262.00
2019,04,27,14,59,223.10
2019,04,27,15,00,187.00
2019,04,27,15,01,166.60
2019,04,27,15,02,158.50
2019,04,27,15,03,167.00
2019,04,27,15,04,185.00
2019,04,27,15,05,185.00
2019,04,27,15,06,185.00
2019,04,27,15,07,185.00
2019,04,27,15,08,185.00
2019,04,27,15,09,185.00
2019,04,27,15,10,185.00
2019,04,27,15,11,185.00
2019,04,27,15,12,185.00
2019,04,27,15,13,261.80
2019,04,27,15,14,1024.00
2019,04,27,15,15,997.00
2019,04,27,15,16,997.00
2019,04,27,15,17,997.00
2019,04,27,15,18,997.00
2019,04,27,15,19,997.00
2019,04,27,15,20,524.50
2019,04,27,15,21,307.10
2019,04,27,15,22,310.60
2019,04,27,15,23,311.00
2019,04,27,15,24,872.00
2019,04,27,15,25,872.00
2019,04,27,15,26,872.00
2019,04,27,15,27,710.70
2019,04,27,15,28,372.50
2019,04,27,15,29,350.00
2019,04,27,15,30,715.80
2019,04,27,15,31,966.30
2019,04,27,15,32,962.70
2019,04,27,15,33,962.80
2019,04,27,15,34,963.00
2019,04,27,15,35,963.00
2019,04,27,15,36,946.10
2019,04,27,15,37,870.00
2019,04,27,15,38,870.00
2019,04,27,15,39,602.50
2019,04,27,15,40,207.50
2019,04,27,15,41,193.70
2019,04,27,15,42,190.00
2019,04,27,15,43,196.90
2019,04,27,15,44,199.80
2019,04,27,15,45,193.60
2019,04,27,15,46,190.80
2019,04,27,15,47,202.50
2019,04,27,15,48,214.20
2019,04,27,15,49,197.00
2019,04,27,15,50,181.40
2019,04,27,15,51,188.00
2019,04,27,15,52,182.20
2019,04,27,15,53,161.10
2019,04,27,15,54,156.00
2019,04,27,15,55,163.70
2019,04,27,15,56,182.10
2019,04,27,15,57,207.70
2019,04,27,15,58,235.50
2019,04,27,15,59,270.20
2019,04,27,16,00,233.70
2019,04,27,16,01,222.50
2019,04,27,16,02,213.00
2019,04,27,16,03,213.00
2019,04,27,16,04,213.00
2019,04,27,16,05,200.80
2019,04,27,16,06,161.00
2019,04,27,16,07,155.90
2019,04,27,16,08,181.00
2019,04,27,16,09,181.00
2019,04,27,16,10,181.00
2019,04,27,16,11,383.20
2019,04,27,16,12,727.10
2019,04,27,16,13,702.50
2019,04,27,16,14,680.40
2019,04,27,16,15,666.90
2019,04,27,16,16,664.00
2019,04,27,16,17,664.00
2019,04,27,16,18,664.00
2019,04,27,16,19,661.50
2019,04,27,16,20,666.90
2019,04,27,16,21,662.40
2019,04,27,16,22,635.00
2019,04,27,16,23,635.00
2019,04,27,16,24,635.00
2019,04,27,16,25,366.40
2019,04,27,16,26,218.20
2019,04,27,16,27,241.00
2019,04,27,16,28,590.70
2019,04,27,16,29,664.90
2019,04,27,16,30,653.50
2019,04,27,16,31,647.90
2019,04,27,16,32,641.80
2019,04,27,16,33,636.30
2019,04,27,16,34,631.30
2019,04,27,16,35,626.40
2019,04,27,16,36,624.00
2019,04,27,16,37,622.70
2019,04,27,16,38,621.20
2019,04,27,16,39,614.10
2019,04,27,16,40,613.00
2019,04,27,16,41,613.00
2019,04,27,16,42,613.00
2019,04,27,16,43,486.20
2019,04,27,16,44,140.10
2019,04,27,16,45,123.00
2019,04,27,16,46,352.50
2019,04,27,16,47,582.00
2019,04,27,16,48,286.10
2019,04,27,16,49,148.00
2019,04,27,16,50,148.00
2019,04,27,16,51,243.50
2019,04,27,16,52,350.00
2019,04,27,16,53,350.00
2019,04,27,16,54,350.00
2019,04,27,16,55,277.30
2019,04,27,16,56,136.10
2019,04,27,16,57,142.00
2019,04,27,16,58,142.00
2019,04,27,16,59,416.80
2019,04,27,17,00,542.00
2019,04,27,17,01,534.50
2019,04,27,17,02,523.00
2019,04,27,17,03,495.60
2019,04,27,17,04,232.00
2019,04,27,17,05,310.30
2019,04,27,17,06,517.70
2019,04,27,17,07,503.50
2019,04,27,17,08,498.50